Погода в Сторожинце

Украина / Черновицкая область     48°09′34″N   25°43′20″E
темп.,
°C
ветер,
м/с
пор.,
м/с
влажн.,
%
обл.,
%
осадки,
мм/ч
давл.,
гПа
погр.,
м
31 июля, сб
сб3100:00+19ююз22870 0.0 101213
03:00+18ю22880 0.1 101112
06:00+17юз11870 0.0 101111
09:00+22ююв22740 0.0 1011200
12:00+27юв33573 0.0 1011723
15:00+29всв32450 0.0 10101256
18:00+28вюв34570 0.0 1009851
21:00+23ююв33691 0.0 100921
1 августа, вс
вс100:00+21ююв34709 0.0 100955
03:00+17зсз4109515 0.0 1010273
06:00+16зсз499828 0.0 1011261
09:00+20зсз35815 0.0 1012365
12:00+25ссз22610 0.0 1011725
15:00+28вюв22520 0.0 1010818
18:00+28вюв576146 0.0 1008698
21:00+23ююв3577100 0.0 100774
2 августа, пн
пн200:00+20зсз118939 2.5 100816
03:00+20ю34816 2.6 100757
06:00+19ю338151 0.0 100727
09:00+25юз23677 0.0 1007148
12:00+30з610426 0.0 10072878
15:00+27ссз68548 0.0 10081330
18:00+23ссз686713 0.0 1010659
21:00+17сз378330 0.0 1012219
3 августа, вт
вт300:00+15зсз229315 0.0 101430
03:00+13з229617 0.9 101624
06:00+13з11930 0.0 101511
09:00+17зсз23780 0.0 1017390
12:00+22ссз23590 0.0 10171169
15:00+24ссз234925 0.0 10161736
18:00+24ссз115060 0.0 10151572
21:00+20юв116676 0.1 101613
4 августа, ср
ср400:00+16ю22810 0.3 101713
03:00+15ю2287100 0.3 101723
06:00+15ююв338698 0.0 101636
09:00+20юв35735 0.0 1016332
12:00+25юв3354100 0.0 1015709
15:00+28вюв3339100 0.0 10141448
18:00+26вюв3554100 0.0 1013372
21:00+21вюв2265100 0.0 101315